TimeEST,TemperatureF,Dew PointF,Humidity,Sea Level PressureIn,VisibilityMPH,Wind Direction,Wind SpeedMPH,Gust SpeedMPH,PrecipitationIn,Events,Conditions,WindDirDegrees,DateUTC
12:32 AM,57.2,53.6,88,30.18,9.0,NE,10.4,-,N/A,,Overcast,40,2012-11-15 05:32:00
12:53 AM,57.0,54.0,89,30.17,8.0,NNE,10.4,-,N/A,,Overcast,30,2012-11-15 05:53:00
1:53 AM,57.9,55.0,90,30.15,5.0,NNE,10.4,-,N/A,,Overcast,20,2012-11-15 06:53:00
2:53 AM,55.0,52.0,89,30.16,7.0,NNW,6.9,-,N/A,,Overcast,330,2012-11-15 07:53:00
3:53 AM,53.1,51.1,93,30.16,2.5,NNW,9.2,-,N/A,,Overcast,330,2012-11-15 08:53:00
4:39 AM,51.8,48.2,88,30.16,3.0,NNW,10.4,17.3,N/A,,Overcast,340,2012-11-15 09:39:00
4:53 AM,51.1,48.9,92,30.16,4.0,NNW,8.1,18.4,N/A,,Overcast,330,2012-11-15 09:53:00
5:53 AM,50.0,48.0,93,30.17,9.0,North,11.5,21.9,N/A,,Overcast,350,2012-11-15 10:53:00
6:53 AM,51.1,48.0,89,30.18,10.0,NNW,11.5,-,N/A,,Overcast,340,2012-11-15 11:53:00
7:53 AM,51.1,48.0,89,30.21,10.0,NNW,6.9,19.6,N/A,,Overcast,340,2012-11-15 12:53:00
8:53 AM,50.0,46.9,89,30.22,10.0,North,11.5,19.6,N/A,,Overcast,350,2012-11-15 13:53:00
9:53 AM,51.1,46.9,86,30.23,10.0,North,12.7,-,N/A,,Overcast,350,2012-11-15 14:53:00
10:53 AM,52.0,46.9,83,30.24,10.0,North,9.2,-,N/A,,Overcast,10,2012-11-15 15:53:00
11:08 AM,53.6,46.4,77,30.23,10.0,North,9.2,-,N/A,,Overcast,360,2012-11-15 16:08:00
11:46 AM,55.4,46.4,72,30.21,10.0,North,6.9,-,N/A,,Overcast,360,2012-11-15 16:46:00
11:53 AM,55.0,46.9,74,30.21,10.0,North,9.2,-,N/A,,Overcast,350,2012-11-15 16:53:00
12:53 PM,57.9,48.9,72,30.18,10.0,Variable,5.8,-,N/A,,Mostly Cloudy,0,2012-11-15 17:53:00
1:09 PM,59.0,48.2,67,30.17,10.0,NE,8.1,-,N/A,,Mostly Cloudy,40,2012-11-15 18:09:00
1:53 PM,59.0,51.1,75,30.17,10.0,ENE,6.9,-,N/A,,Overcast,60,2012-11-15 18:53:00
2:53 PM,59.0,50.0,72,30.16,10.0,NNE,8.1,-,N/A,,Overcast,20,2012-11-15 19:53:00
3:53 PM,57.9,51.1,78,30.16,10.0,North,9.2,-,N/A,,Overcast,10,2012-11-15 20:53:00
4:19 PM,57.2,51.8,82,30.17,10.0,North,10.4,-,N/A,,Overcast,350,2012-11-15 21:19:00
4:53 PM,55.9,50.0,80,30.17,10.0,North,9.2,-,N/A,,Overcast,350,2012-11-15 21:53:00
5:18 PM,53.6,50.0,88,30.18,5.0,North,11.5,-,N/A,,Overcast,360,2012-11-15 22:18:00
5:39 PM,53.6,51.8,94,30.19,4.0,North,6.9,-,N/A,,Overcast,10,2012-11-15 22:39:00
5:53 PM,53.1,50.0,89,30.19,4.0,North,10.4,-,N/A,,Overcast,360,2012-11-15 22:53:00
6:07 PM,51.8,50.0,94,30.19,6.0,North,6.9,-,N/A,,Overcast,350,2012-11-15 23:07:00
6:53 PM,52.0,50.0,93,30.20,7.0,North,6.9,-,N/A,,Overcast,350,2012-11-15 23:53:00
7:53 PM,52.0,48.9,89,30.21,10.0,North,8.1,-,N/A,,Overcast,360,2012-11-16 00:53:00
8:53 PM,51.1,48.0,89,30.22,10.0,North,6.9,-,N/A,,Overcast,350,2012-11-16 01:53:00
9:53 PM,51.1,46.9,86,30.22,10.0,NNW,6.9,-,N/A,,Overcast,340,2012-11-16 02:53:00
10:53 PM,51.1,46.9,86,30.21,10.0,NNW,6.9,-,N/A,,Overcast,340,2012-11-16 03:53:00
11:53 PM,51.1,46.9,86,30.21,10.0,North,8.1,-,N/A,,Overcast,350,2012-11-16 04:53:00